Zurück zum Katalog

CZ-6A DEB

AktivSSO
NORAD 54344·DEBRIS·🇨🇳 China

Gestartet Nov 11, 2022 von Taiyuan Satellite Launch Center

Loading…

Nächste Überflüge (nächste 24 Stunden)

TLE

AktuellSource: Space-Track

Epoche: Sep 14, 2026, 09:53 UTC

1 54344U 22151CP  26257.41229067  .00000204  00000-0  14480-3 0  9990
2 54344  98.8694 252.1770 0057384 108.4473 252.2945 14.07309304196651

Verfolge CZ-6A DEB in Echtzeit mit AllMySat

Download on the App Store